Theta_e
335 336 337 337 336 337 336 336 336 335 333 332 333 332 331 331 331 331 331 332 332 333 333 333 330 328 323
330 329 331 333 334 333 332 330 330 330 330 329 327 330 330 331 331 332 332 333 333 333 333 331 328 327 321
329 326 327 329 329 328 327 325 324 325 326 325 325 328 330 330 330 331 333 334 332 329 329 328 326 323 320
329 327 327 329 328 327 327 326 326 327 327 327 322 325 328 328 331 333 333 331 327 324 324 325 324 323 321
324 325 326 327 329 330 329 329 328 328 326 326 326 325 324 321 325 328 327 327 325 326 327 324 324 325 325
325 325 327 327 327 327 328 329 326 326 326 325 324 325 325 325 325 328 328 328 328 329 328 327 327 325 325
327 327 329 328 327 327 327 328 326 324 324 326 326 329 330 331 330 328 329 329 328 329 329 328 328 327 327
329 329 328 327 327 326 325 326 327 327 327 330 331 331 331 332 331 329 328 326 327 325 324 325 325 325 324
327 329 327 327 327 326 327 328 330 332 332 332 332 331 331 330 327 329 327 322 320 320 319 321 319 320 320
326 326 326 326 326 330 330 326 321 322 323 328 328 324 323 320 319 317 316 315 314 314 314 314 314 315 315
325 325 325 324 320 317 317 316 316 317 318 318 317 316 316 315 314 314 312 312 311 311 312 312 312 310 312
325 325 321 316 314 314 312 311 312 312 313 314 312 311 313 312 310 310 309 310 310 308 311 311 309 309 311
326 326 319 312 311 309 307 307 307 307 308 308 308 308 308 305 304 305 306 306 307 307 306 305 307 308 306
324 319 313 310 307 304 302 300 300 301 301 302 302 303 302 302 299 300 300 301 303 303 300 301 301 303 304
313 312 310 309 306 300 297 296 296 297 297 298 298 298 298 298 297 296 297 296 298 300 298 298 294 293 297
308 307 305 301 297 295 295 295 294 294 294 295 295 295 295 295 296 296 296 294 296 292 296 296 295 293 291
Wind_Speed
10 10 10 10 10 10 10 9 7 7 6 6 6 5 5 5 5 4 4 5 6 7 9 9 9 9 6
6 8 9 9 9 9 8 7 6 5 5 5 4 2 2 2 3 3 4 5 7 8 9 11 9 8 6
7 6 7 8 8 7 6 6 3 1 1 3 3 3 2 3 4 5 6 7 7 8 9 12 7 3 5
7 6 5 5 4 4 4 4 3 4 5 5 4 5 5 6 6 8 8 9 6 4 4 4 3 5 4
6 4 3 3 3 3 5 3 2 3 1 1 2 2 3 4 3 4 5 4 5 4 4 4 4 4 3
4 4 5 4 3 3 3 4 2 0 2 2 1 2 3 2 4 4 2 4 4 5 5 5 5 4 3
6 4 4 4 3 4 4 4 2 1 2 1 2 2 2 2 2 4 4 4 5 5 5 5 6 6 5
4 5 4 4 3 4 3 3 3 2 1 2 3 3 3 3 3 3 3 3 3 3 5 6 6 6 6
6 4 3 3 4 3 3 2 2 5 5 4 3 4 3 3 4 3 3 5 5 5 6 5 5 6 5
6 4 3 3 3 5 6 6 9 9 7 6 5 5 4 5 4 4 4 3 4 4 4 4 4 5 6
6 4 3 9 7 6 7 7 9 9 8 7 5 5 5 4 5 4 4 3 3 5 5 4 5 4 5
5 4 7 8 7 7 7 8 10 9 10 7 6 7 6 5 5 5 4 4 3 5 5 5 6 3 3
4 5 4 5 6 7 8 11 12 11 10 9 7 8 6 7 6 7 4 5 4 9 4 5 3 3 5
5 5 5 5 8 8 8 11 12 12 11 10 9 8 9 6 9 9 7 3 4 8 4 2 5 5 6
10 9 10 8 6 8 8 8 10 12 12 12 11 9 9 8 7 6 8 10 5 4 7 4 4 3 9
12 10 11 10 10 8 7 7 8 12 11 12 11 10 9 7 9 9 8 7 5 6 3 6 4 2 4
Wind_Direction
112 111 111 110 108 105 106 108 110 107 102 93 76 72 61 46 35 21 360 338 325 322 320 312 309 310 318
125 120 118 114 110 110 118 128 133 141 139 130 116 83 55 18 342 322 315 308 307 309 306 298 293 305 300
132 129 122 128 132 137 147 156 161 199 200 175 189 192 207 250 266 282 284 282 296 295 285 276 285 285 291
143 150 154 158 167 173 182 179 201 202 182 174 214 223 245 261 279 276 273 281 287 280 280 307 257 265 272
143 161 172 167 187 204 168 173 138 97 225 222 246 241 243 252 262 271 259 259 252 247 278 289 269 267 277
155 164 181 171 157 169 163 136 134 106 267 285 237 216 216 214 253 262 319 307 308 311 306 304 306 302 293
156 174 148 162 161 151 161 166 153 159 224 275 289 317 346 328 338 5 350 342 329 330 326 320 306 298 291
166 160 137 156 159 146 145 182 191 169 234 22 21 9 9 9 32 8 353 334 331 346 332 323 305 304 299
165 128 139 153 141 145 175 130 84 49 42 38 36 35 17 14 358 15 357 359 352 340 326 319 326 321 318
149 148 143 159 101 61 72 62 49 47 36 45 45 32 17 33 30 33 28 4 344 342 323 327 322 317 319
158 161 126 70 67 61 57 56 47 44 43 59 49 30 30 38 28 19 6 19 7 343 321 318 311 318 332
153 126 81 75 68 62 55 51 46 41 38 42 41 32 29 33 26 9 7 348 16 333 318 323 306 328 45
166 132 85 77 70 65 57 48 43 41 36 35 37 36 35 43 14 18 344 350 358 356 347 322 304 338 75
66 88 101 98 80 74 63 52 44 43 36 43 36 29 24 42 24 18 19 351 345 25 343 317 346 336 3
84 99 102 93 84 72 59 50 43 46 41 33 33 39 32 8 39 20 11 25 4 9 43 20 1 324 331
65 82 87 96 92 81 74 65 41 49 42 46 35 32 32 26 17 28 27 22 6 29 351 14 31 351 344